TimeMDT,TemperatureF,Dew PointF,Humidity,Sea Level PressureIn,VisibilityMPH,Wind Direction,Wind SpeedMPH,Gust SpeedMPH,PrecipitationIn,Events,Conditions,WindDirDegrees,DateUTC
12:53 AM,41.0,21.9,47,30.07,10.0,WSW,25.3,33.4,N/A,,Overcast,240,2013-03-11 06:53:00
1:53 AM,41.0,21.9,47,30.06,10.0,Variable,3.5,-,N/A,,Overcast,0,2013-03-11 07:53:00
2:53 AM,37.9,23.0,55,30.07,10.0,West,3.5,-,N/A,,Mostly Cloudy,280,2013-03-11 08:53:00
3:53 AM,37.0,25.0,62,30.06,10.0,SW,9.2,19.6,N/A,,Overcast,230,2013-03-11 09:53:00
4:53 AM,36.0,25.0,64,30.05,10.0,SW,12.7,-,N/A,,Overcast,220,2013-03-11 10:53:00
5:53 AM,33.1,26.1,75,30.06,10.0,SW,10.4,-,N/A,,Mostly Cloudy,230,2013-03-11 11:53:00
6:53 AM,32.0,26.1,79,30.08,10.0,SE,5.8,-,N/A,,Clear,130,2013-03-11 12:53:00
7:53 AM,32.0,26.1,79,30.11,10.0,Calm,Calm,-,N/A,,Clear,0,2013-03-11 13:53:00
8:53 AM,33.1,25.0,72,30.12,10.0,SW,9.2,-,N/A,,Partly Cloudy,230,2013-03-11 14:53:00
9:53 AM,39.9,21.9,49,30.11,10.0,West,17.3,-,N/A,,Clear,260,2013-03-11 15:53:00
10:48 AM,42.8,19.4,39,30.10,2.0,WSW,17.3,-,N/A,,Haze,250,2013-03-11 16:48:00
10:53 AM,42.1,19.9,41,30.10,2.5,West,15.0,-,N/A,,Haze,280,2013-03-11 16:53:00
11:01 AM,42.8,19.4,39,30.10,10.0,WNW,15.0,25.3,N/A,,Clear,290,2013-03-11 17:01:00
11:53 AM,44.1,12.9,28,30.08,5.0,West,21.9,32.2,N/A,,Haze,260,2013-03-11 17:53:00
12:53 PM,45.0,8.1,22,30.08,10.0,WNW,11.5,25.3,N/A,,Clear,290,2013-03-11 18:53:00
1:53 PM,45.0,3.9,18,30.08,8.0,WNW,25.3,32.2,N/A,,Clear,290,2013-03-11 19:53:00
2:53 PM,46.0,3.9,18,30.07,10.0,WNW,25.3,35.7,N/A,,Clear,300,2013-03-11 20:53:00
3:53 PM,46.0,1.0,16,30.07,5.0,West,16.1,28.8,N/A,,Haze,280,2013-03-11 21:53:00
4:53 PM,45.0,-0.9,15,30.09,10.0,NW,15.0,-,N/A,,Clear,320,2013-03-11 22:53:00
5:53 PM,43.0,-0.0,17,30.11,10.0,NW,10.4,26.5,N/A,,Clear,310,2013-03-11 23:53:00
6:53 PM,41.0,1.9,20,30.13,10.0,NW,8.1,-,N/A,,Clear,320,2013-03-12 00:53:00
7:53 PM,37.0,3.0,24,30.17,10.0,Variable,3.5,-,N/A,,Clear,0,2013-03-12 01:53:00
8:53 PM,33.1,7.0,34,30.20,10.0,North,4.6,-,N/A,,Clear,350,2013-03-12 02:53:00
9:53 PM,28.0,10.0,47,30.20,10.0,SE,5.8,-,N/A,,Clear,130,2013-03-12 03:53:00
10:53 PM,30.0,9.0,41,30.20,10.0,West,8.1,-,N/A,,Clear,280,2013-03-12 04:53:00
11:53 PM,27.0,10.9,51,30.22,10.0,SSW,6.9,-,N/A,,Clear,200,2013-03-12 05:53:00